Fort Leonard Wood, MO

11:50 PM CDT on May 22, 2017 (GMT -0500)
Waynesville Regional At Forney Field

Weather History for KTBN - January, 2013

Change the Weather History Date:

Sunday, January 27, 2013

  Actual Average Record
Temperature  
Mean Temperature 46 °F -  
Max Temperature 57 °F 41 °F 66 °F (1999)
Min Temperature 35 °F 26 °F 9 °F (2014)
Degree Days  
Heating Degree Days 19    
Moisture  
Dew Point 41 °F    
Average Humidity 89    
Maximum Humidity 100    
Minimum Humidity 63    
Precipitation  
Precipitation 0.08 in - - ()
Sea Level Pressure  
Sea Level Pressure 30.07 in    
Wind  
Wind Speed 13 mph (SSE)    
Max Wind Speed 17 mph    
Max Gust Speed 30 mph    
Visibility 10 miles    
Events Rain    
Averages and records for this station are not official NWS values.
T = Trace of Precipitation, MM = Missing Value Source: NWS Daily Summary

Daily Weather History Graph

Daily Weather History Graph

Search for Another Location

Airport or City:

Trip Planner

Search our weather history database for the weather conditions in past years. The results will help you decide how hot, cold, wet, or windy it might be!

Date:

Astronomy

Jan. 27, 2013 Rise Set
Actual Time 7:16 AM CST 5:27 PM CST
Civil Twilight 6:48 AM CST 5:54 PM CST
Nautical Twilight 6:16 AM CST 6:26 PM CST
Astronomical Twilight 5:45 AM CST 6:57 PM CST
Moon 6:19 PM CST (1/27) 7:10 AM CST (1/27)
Length of Visible Light 11h 06m
Length of Day
10h 10m
Full, 100% of the Moon is Illuminated
Jan 27
Full
Feb 3
Last Quarter
Feb 10
New
Feb 17
First Quarter
Feb 25
Full

Hourly Weather History & Observations

Time (CST) Temp. Windchill Dew Point Humidity Pressure Visibility Wind Dir Wind Speed Gust Speed Precip Events Conditions
12:55 AM 38.8 °F 30.4 °F 28.0 °F 65% 30.19 in 10.0 mi SE 15.0 mph - N/A   Overcast
1:55 AM 39.2 °F 32.0 °F 27.5 °F 63% 30.20 in 10.0 mi SSE 11.5 mph - N/A   Overcast
2:10 AM 39.2 °F 32.0 °F 28.4 °F 65% 30.19 in 10.0 mi SE 11.5 mph - N/A   Overcast
2:14 AM 39.2 °F 31.6 °F 28.4 °F 65% 30.19 in 10.0 mi SE 12.7 mph - N/A   Overcast
2:25 AM 39.2 °F 31.6 °F 30.2 °F 70% 30.19 in 10.0 mi SE 12.7 mph - N/A   Mostly Cloudy
2:26 AM 39.2 °F 32.0 °F 30.2 °F 70% 30.19 in 10.0 mi SE 11.5 mph - N/A   Mostly Cloudy
2:31 AM 37.4 °F 30.3 °F 30.2 °F 75% 30.19 in 10.0 mi SSE 10.4 mph - N/A   Mostly Cloudy
2:36 AM 37.4 °F 29.8 °F 30.2 °F 75% 30.19 in 10.0 mi SSE 11.5 mph - N/A   Light Drizzle
2:55 AM 37.6 °F 30.5 °F 31.6 °F 79% 30.18 in 10.0 mi SE 10.4 mph - 0.00 in Rain Light Rain
3:03 AM 37.4 °F 29.3 °F 32.0 °F 81% 30.17 in 10.0 mi SE 12.7 mph - N/A Rain Light Rain
3:06 AM 37.4 °F 29.3 °F 32.0 °F 81% 30.17 in 10.0 mi SE 12.7 mph - N/A   Overcast
3:11 AM 37.4 °F 28.9 °F 32.0 °F 81% 30.17 in 10.0 mi SE 13.8 mph - N/A   Light Drizzle
3:34 AM 37.4 °F 29.8 °F 32.0 °F 81% 30.17 in 10.0 mi SSE 11.5 mph - N/A Rain Light Rain
3:55 AM 36.7 °F 29.9 °F 33.4 °F 88% 30.17 in 8.0 mi SSE 9.2 mph - 0.01 in Rain Light Rain
4:21 AM 35.6 °F 27.1 °F 33.8 °F 93% 30.16 in 8.0 mi SE 12.7 mph - N/A Rain Light Rain
4:55 AM 36.0 °F 27.1 °F 34.7 °F 95% 30.14 in 8.0 mi SE 13.8 mph - 0.04 in Rain Light Rain
5:51 AM 35.6 °F 27.5 °F 33.8 °F 93% 30.12 in 10.0 mi SSE 11.5 mph - N/A   Overcast
5:55 AM 36.1 °F 28.2 °F 34.7 °F 94% 30.12 in 10.0 mi SSE 11.5 mph 19.6 mph 0.01 in   Overcast
6:47 AM 37.4 °F 29.8 °F 35.6 °F 93% 30.13 in 10.0 mi SSE 11.5 mph - N/A   Overcast
6:48 AM 37.4 °F 29.8 °F 35.6 °F 93% 30.13 in 10.0 mi SSE 11.5 mph - N/A   Overcast
6:49 AM 37.4 °F 30.3 °F 35.6 °F 93% 30.13 in 10.0 mi SSE 10.4 mph - N/A   Overcast
6:55 AM 36.9 °F 29.6 °F 35.4 °F 95% 30.13 in 10.0 mi SSE 10.4 mph - 0.00 in   Overcast
7:10 AM 37.4 °F 29.8 °F 35.6 °F 93% 30.13 in 10.0 mi SSE 11.5 mph - N/A   Overcast
7:21 AM 37.4 °F 29.8 °F 35.6 °F 93% 30.13 in 10.0 mi SSE 11.5 mph - N/A   Overcast
7:47 AM 37.4 °F 29.3 °F 35.6 °F 93% 30.13 in 10.0 mi SSE 12.7 mph - N/A   Overcast
7:55 AM 37.9 °F 30.0 °F 35.4 °F 91% 30.13 in 10.0 mi SSE 12.7 mph 19.6 mph 0.00 in   Overcast
8:01 AM 37.4 °F 29.3 °F 35.6 °F 93% 30.13 in 10.0 mi SSE 12.7 mph - N/A   Overcast
8:43 AM 39.2 °F 32.0 °F 35.6 °F 87% 30.12 in 10.0 mi South 11.5 mph 17.3 mph N/A   Overcast
8:46 AM 39.2 °F 32.0 °F 35.6 °F 87% 30.12 in 10.0 mi SSE 11.5 mph 17.3 mph N/A   Overcast
8:52 AM 39.2 °F 31.6 °F 37.4 °F 93% 30.12 in 10.0 mi South 12.7 mph 17.3 mph N/A   Overcast
8:53 AM 39.2 °F 31.6 °F 37.4 °F 93% 30.12 in 10.0 mi SSE 12.7 mph 17.3 mph N/A   Overcast
8:55 AM 39.6 °F 32.5 °F 36.7 °F 89% 30.12 in 10.0 mi SSE 11.5 mph 17.3 mph 0.00 in   Overcast
9:02 AM 39.2 °F 31.2 °F 37.4 °F 93% 30.12 in 10.0 mi SSE 13.8 mph - N/A Rain Light Rain
9:55 AM 39.9 °F 31.8 °F 38.5 °F 95% 30.11 in 10.0 mi SSE 15.0 mph 21.9 mph 0.01 in Rain Light Rain
10:02 AM 39.2 °F 31.2 °F 39.2 °F 100% 30.11 in 10.0 mi South 13.8 mph 21.9 mph N/A   Overcast
10:55 AM 42.1 °F 35.7 °F 40.5 °F 94% 30.09 in 10.0 mi SSE 11.5 mph - 0.00 in   Overcast
11:46 AM 42.8 °F 35.4 °F 42.8 °F 100% 30.06 in 10.0 mi SSE 15.0 mph 20.7 mph N/A   Overcast
11:53 AM 44.6 °F 38.4 °F 42.8 °F 93% 30.06 in 10.0 mi South 12.7 mph 19.6 mph N/A   Overcast
11:55 AM 44.1 °F 38.1 °F 42.4 °F 94% 30.06 in 10.0 mi South 11.5 mph 19.6 mph 0.00 in   Overcast
12:13 PM 46.4 °F 40.4 °F 44.6 °F 93% 30.05 in 10.0 mi South 13.8 mph 24.2 mph N/A   Overcast
12:55 PM 47.8 °F - 45.3 °F 91% 30.02 in 10.0 mi South 13.8 mph 19.6 mph N/A   Overcast
1:01 PM 48.2 °F - 46.4 °F 93% 30.02 in 10.0 mi South 11.5 mph 19.6 mph N/A   Light Drizzle
1:09 PM 48.2 °F - 46.4 °F 93% 30.02 in 10.0 mi South 16.1 mph 21.9 mph N/A   Overcast
1:40 PM 50.0 °F - 46.4 °F 87% 30.00 in 10.0 mi South 10.4 mph 21.9 mph N/A Rain Light Rain
1:49 PM 50.0 °F - 46.4 °F 87% 29.99 in 10.0 mi South 15.0 mph 21.9 mph N/A   Overcast
1:55 PM 50.9 °F - 46.4 °F 85% 29.98 in 10.0 mi South 17.3 mph 27.6 mph 0.00 in   Overcast
2:05 PM 51.8 °F - 46.4 °F 82% 29.98 in 10.0 mi South 13.8 mph 27.6 mph N/A Rain Light Rain
2:17 PM 51.8 °F - 48.2 °F 88% 29.98 in 10.0 mi South 16.1 mph 25.3 mph N/A   Mostly Cloudy
2:22 PM 51.8 °F - 48.2 °F 88% 29.98 in 10.0 mi South 13.8 mph 25.3 mph N/A Rain Light Rain
2:55 PM 50.4 °F - 50.2 °F 99% 29.97 in 10.0 mi South 15.0 mph 21.9 mph 0.01 in   Light Drizzle
3:21 PM 51.8 °F - 50.0 °F 94% 29.95 in 10.0 mi SSE 12.7 mph 20.7 mph N/A   Overcast
3:55 PM 52.2 °F - 52.0 °F 99% 29.95 in 10.0 mi South 13.8 mph 21.9 mph 0.00 in   Mostly Cloudy
4:15 PM 51.8 °F - 51.8 °F 100% 29.94 in 10.0 mi South 16.1 mph 26.5 mph N/A   Mostly Cloudy
4:55 PM 52.5 °F - 52.0 °F 98% 29.94 in 10.0 mi South 16.1 mph 26.5 mph N/A   Overcast
5:55 PM 52.7 °F - 52.0 °F 97% 29.93 in 10.0 mi South 17.3 mph 21.9 mph N/A   Overcast
6:55 PM 53.2 °F - 52.7 °F 98% 29.95 in 10.0 mi South 13.8 mph 25.3 mph N/A   Overcast
6:58 PM 53.6 °F - 51.8 °F 94% 29.95 in 10.0 mi South 12.7 mph 25.3 mph N/A   Overcast
7:04 PM 53.6 °F - 53.6 °F 100% 29.95 in 10.0 mi South 17.3 mph 29.9 mph N/A   Overcast
7:55 PM 54.3 °F - 52.7 °F 94% 29.96 in 10.0 mi South 12.7 mph 21.9 mph N/A   Overcast
8:55 PM 54.1 °F - 52.9 °F 95% 29.96 in 10.0 mi South 12.7 mph 17.3 mph N/A   Overcast
9:55 PM 55.2 °F - 53.6 °F 94% 29.96 in 10.0 mi South 11.5 mph 18.4 mph N/A   Overcast
10:55 PM 56.5 °F - 54.5 °F 93% 29.96 in 10.0 mi South 10.4 mph - N/A   Overcast
11:37 PM 57.2 °F - 55.4 °F 94% 29.95 in 10.0 mi South 13.8 mph 23.0 mph N/A   Overcast
11:40 PM 57.2 °F - 55.4 °F 94% 29.95 in 10.0 mi South 10.4 mph 23.0 mph N/A   Overcast
11:55 PM 57.6 °F - 55.2 °F 92% 29.96 in 10.0 mi South 9.2 mph 18.4 mph N/A   Overcast